Theta_e
295 294 294 294 294 294 294 294 294 295 295 296 296 296 297 298 298 299 299 299 299 300 300 300 300 299 299 298 298 298 298 298 298 298 298 298 298 298 299 298 298 297
292 292 292 292 292 292 292 292 292 292 293 293 293 293 294 294 295 296 296 297 298 299 299 299 300 300 299 299 298 298 298 298 298 298 297 297 297 297 298 298 298 297
290 290 290 290 290 290 290 290 290 290 290 291 291 291 291 292 292 292 293 293 295 296 297 298 299 299 299 299 299 298 298 297 297 297 297 297 297 297 297 297 297 297
289 289 289 289 289 288 288 288 289 289 289 289 289 289 289 289 290 290 290 290 291 292 293 294 295 297 298 299 299 299 298 298 297 297 297 297 297 297 297 296 296 296
288 288 288 288 288 288 288 288 288 288 288 288 288 288 288 288 288 288 289 289 289 289 290 290 291 292 293 295 296 298 298 298 298 297 297 297 297 296 296 296 296 296
288 288 288 288 288 288 288 288 288 287 287 287 287 287 287 287 287 287 287 287 287 288 288 288 288 289 289 290 292 293 295 296 297 297 297 297 297 296 296 295 296 296
288 288 288 288 288 288 288 288 288 288 288 287 287 287 287 287 287 287 287 286 286 287 287 287 287 287 288 288 288 289 290 291 293 294 296 297 297 297 296 295 294 294
287 287 287 287 287 288 288 288 288 287 287 287 287 287 287 287 287 287 287 287 286 286 286 286 286 286 287 287 287 287 288 288 289 290 291 293 294 296 297 296 295 294
287 287 287 287 287 287 287 287 287 287 287 287 287 287 287 287 287 287 287 287 287 287 287 286 286 286 286 286 286 286 287 287 287 287 288 288 289 291 293 294 295 296
287 287 287 287 287 287 287 287 287 287 287 287 287 287 287 287 287 287 287 287 287 287 287 287 287 286 286 286 286 286 286 286 286 286 286 287 287 288 288 289 291 293
287 287 287 287 287 287 287 287 286 286 286 286 286 286 286 286 286 286 286 286 286 286 286 286 286 286 286 286 286 286 286 286 286 286 286 286 286 286 287 287 287 288
287 287 287 287 287 287 286 286 286 286 286 286 286 286 286 286 286 286 286 286 286 286 286 286 286 286 286 286 286 286 286 286 286 286 286 286 286 286 286 286 286 286
287 287 287 286 286 286 286 286 286 286 286 286 285 285 285 285 285 285 285 285 285 285 285 285 285 286 286 286 286 286 286 286 286 286 286 286 286 286 286 286 286 286
287 286 286 286 286 286 285 285 285 285 285 285 285 285 285 285 285 285 285 285 285 285 285 285 285 285 285 285 285 285 285 285 285 285 285 285 286 286 286 286 286 286
286 286 286 285 285 285 285 285 285 285 285 285 285 285 285 285 285 285 285 285 285 285 285 285 284 284 285 284 284 284 285 285 285 285 285 285 285 285 285 285 286 286
286 286 285 285 285 285 285 285 284 284 284 284 284 284 284 284 284 284 285 284 285 285 284 284 284 284 284 284 284 284 284 284 284 284 285 285 285 285 285 285 285 285
285 285 285 285 284 284 284 284 284 284 284 284 284 284 284 284 284 284 284 284 284 284 284 284 284 284 284 284 284 283 283 283 283 283 283 283 284 284 284 285 285 285
284 284 284 284 284 283 283 283 283 283 283 283 283 283 283 283 283 283 283 283 283 283 283 283 283 284 284 283 283 283 283 282 282 282 282 282 283 283 283 284 284 284
283 283 283 283 283 283 282 282 282 282 282 281 281 281 281 282 282 282 282 282 282 283 283 283 284 284 284 284 283 283 283 282 282 282 282 282 282 282 283 283 283 283
283 283 283 283 282 282 281 281 281 281 281 280 280 281 281 281 282 282 282 282 282 282 282 282 283 284 283 283 282 282 281 280 280 280 280 281 281 281 282 282 283 283
283 283 282 282 282 281 281 280 280 280 280 280 280 280 281 281 281 281 281 281 281 280 280 281 282 282 282 281 280 280 279 278 277 278 278 279 280 280 281 281 281 282
282 282 282 281 281 281 280 280 280 280 280 280 280 280 280 280 280 280 280 280 280 279 278 279 280 280 279 278 277 277 276 276 276 276 276 277 278 279 279 280 280 281
282 282 281 281 281 280 280 281 281 281 280 279 279 279 279 279 279 279 279 278 278 278 276 276 277 278 276 274 274 274 273 273 273 274 274 275 276 277 277 278 278 279
281 281 281 280 280 280 280 280 280 280 280 279 278 278 279 278 278 277 278 277 276 275 274 273 274 275 273 271 271 272 271 271 271 272 272 273 274 275 275 275 276 277
281 280 280 280 280 280 280 280 280 279 279 278 278 277 277 277 276 275 276 275 273 272 271 270 271 272 271 270 270 270 269 269 270 270 271 271 272 273 273 273 274 275
280 280 280 280 280 280 279 279 279 279 278 278 277 277 276 276 275 273 273 273 271 269 269 269 268 269 269 268 267 268 268 269 269 269 270 270 271 271 271 272 272 273
Wind_Speed
13 13 14 14 15 15 15 15 16 16 16 16 16 15 15 14 14 14 14 15 15 16 16 16 15 15 14 14 15 16 17 18 19 20 22 25 27 30 33 35 36 37
13 13 13 13 14 14 15 15 16 16 16 17 17 16 16 16 16 15 15 14 14 15 16 16 16 16 15 15 15 17 18 19 19 19 21 23 25 28 30 33 35 36
14 14 15 15 16 16 16 16 16 16 16 17 17 18 18 19 19 18 18 17 16 16 16 16 16 16 16 16 16 16 17 19 20 19 20 22 23 25 27 29 32 34
14 15 16 17 17 17 17 17 17 18 18 18 18 19 19 20 21 21 21 21 21 20 19 18 18 17 17 17 18 17 17 17 18 19 21 22 22 24 25 26 29 32
14 15 16 16 16 17 18 18 19 19 19 19 19 20 20 21 21 22 23 23 24 23 23 22 21 20 20 20 20 20 20 19 18 18 20 21 21 22 24 24 26 28
15 15 16 16 16 16 17 18 18 19 19 20 20 21 21 22 22 22 23 24 24 25 25 25 24 24 23 23 22 22 22 22 22 21 21 21 21 21 21 23 25 27
13 14 15 16 17 17 18 18 18 19 20 21 21 22 23 23 23 24 24 24 24 24 25 25 26 26 25 25 25 25 24 24 25 25 25 25 24 22 21 21 23 26
15 15 16 16 17 18 19 19 20 21 22 23 23 23 24 25 25 26 26 27 27 27 26 26 26 26 26 26 26 26 26 26 26 26 27 28 28 27 25 24 24 25
18 19 19 19 20 20 21 21 22 23 24 24 25 25 26 27 28 29 29 30 30 30 30 30 29 29 28 27 27 27 27 27 27 27 28 29 29 30 29 28 28 28
18 20 21 22 23 24 25 25 26 26 26 27 27 28 28 28 29 30 31 32 33 33 34 34 34 34 34 32 30 29 29 29 29 28 28 28 29 30 30 30 30 31
17 19 21 22 23 24 25 26 27 28 29 29 30 30 31 31 32 32 33 34 35 36 36 37 37 38 38 38 37 36 35 34 33 32 31 30 30 30 30 31 31 32
18 19 21 22 23 24 25 26 27 28 29 31 32 33 34 35 36 37 37 38 38 39 40 40 41 41 41 42 42 41 41 41 40 38 37 35 34 33 32 31 32 33
19 20 21 22 23 24 25 26 27 28 30 32 33 35 37 38 39 40 41 42 43 43 43 43 44 45 45 45 45 45 45 46 46 45 44 42 40 38 37 35 34 34
23 24 24 24 24 25 26 27 28 30 31 33 35 37 38 40 42 43 44 45 46 46 46 47 47 47 48 47 47 47 47 48 49 49 49 49 48 46 44 42 40 39
28 28 28 27 28 28 29 30 32 33 35 36 37 39 40 42 43 45 47 48 49 49 49 49 50 50 50 49 49 48 49 49 50 51 52 53 53 53 51 49 47 45
30 30 30 30 31 32 33 34 36 38 39 40 41 42 43 44 45 47 48 49 50 51 52 52 52 52 52 51 51 50 50 50 51 52 53 54 55 55 56 55 54 52
31 31 31 32 33 35 36 38 40 41 43 44 45 46 47 48 49 50 50 50 51 52 53 54 54 54 54 54 53 53 52 52 52 52 53 54 54 55 56 57 57 56
30 30 32 34 36 38 39 41 42 43 45 46 47 48 49 50 52 52 53 53 53 53 54 54 54 55 55 55 55 55 54 53 53 53 53 53 53 54 56 57 57 56
30 32 34 36 38 40 41 43 44 45 46 47 48 49 50 52 53 53 54 54 54 54 54 54 54 54 53 53 54 53 53 53 52 52 51 51 52 53 54 56 56 56
32 34 37 39 40 41 43 44 44 45 46 46 47 48 50 51 52 53 54 54 54 54 55 55 55 55 53 53 53 53 53 52 50 50 51 52 52 52 53 54 55 56
34 37 39 41 42 43 44 44 44 45 45 45 46 48 49 50 52 53 54 55 55 55 56 57 58 57 55 55 54 54 53 51 48 48 50 52 54 54 54 53 53 54
37 39 41 43 44 44 45 45 45 45 46 46 47 49 50 51 52 53 54 56 56 55 56 58 59 58 56 55 54 53 51 49 48 49 50 52 54 56 56 55 53 52
40 42 43 44 45 45 45 45 45 46 47 47 48 50 52 52 53 54 55 56 57 56 55 56 59 58 54 52 52 51 48 47 49 51 52 54 56 56 55 55 54 52
42 43 44 45 44 44 44 45 45 47 48 48 49 51 53 54 54 55 57 57 55 55 53 53 56 56 52 49 49 48 46 45 47 49 52 55 57 57 56 54 55 55
43 43 44 43 43 43 43 45 46 47 48 49 50 51 53 55 55 55 58 58 54 51 50 49 50 51 48 45 44 43 40 39 40 43 47 49 51 52 54 55 56 58
43 43 43 42 42 43 44 45 46 48 49 49 51 52 53 55 55 55 57 57 53 50 49 47 46 47 45 41 38 36 34 33 35 38 41 43 44 46 50 53 55 57
Wind_Direction
36 33 31 30 29 27 25 21 18 14 12 10 8 6 3 360 357 355 353 351 347 344 340 334 326 315 302 290 280 272 267 263 260 258 257 256 257 257 256 256 256 256
34 32 30 29 28 26 23 18 14 11 8 6 4 1 359 356 354 352 349 347 345 343 341 339 335 329 320 309 296 284 278 273 268 263 260 259 258 258 256 256 255 256
31 29 27 25 25 23 21 17 12 9 6 2 359 356 354 352 350 350 348 346 344 341 338 336 334 332 328 323 314 302 292 285 279 272 266 263 262 260 259 257 256 255
30 28 25 24 22 19 16 13 10 8 6 2 359 356 353 350 347 346 344 344 344 342 340 337 334 332 328 326 322 317 310 300 291 283 274 269 266 264 263 261 259 257
22 21 21 20 19 16 12 9 7 6 3 0 359 356 352 349 347 345 343 342 341 340 339 338 336 334 331 327 324 321 319 314 307 296 285 278 272 268 267 265 263 261
11 10 9 9 9 7 4 2 0 358 356 354 353 351 348 347 346 345 343 341 340 338 336 335 334 334 332 330 327 324 321 319 316 310 302 294 285 275 270 268 267 265
5 3 1 359 357 355 354 353 350 348 346 345 344 342 341 340 340 339 339 338 337 336 334 333 332 331 330 329 327 326 324 321 319 316 312 308 302 293 282 276 273 270
357 356 355 353 350 347 346 344 342 341 339 337 336 335 334 333 332 331 331 330 330 330 330 329 328 327 327 326 324 323 321 320 319 318 315 313 310 306 301 293 285 278
349 348 348 347 345 343 341 339 338 336 335 333 332 331 330 329 328 327 326 324 323 323 322 322 322 322 321 321 320 319 318 317 316 314 313 313 312 311 309 306 299 291
342 341 340 339 338 338 337 336 335 334 333 332 330 329 328 327 326 325 324 323 321 320 319 318 317 317 316 315 315 314 313 312 312 310 308 307 307 308 309 309 306 301
332 332 332 331 332 332 332 332 332 332 331 330 329 328 328 327 326 325 323 322 321 320 319 317 316 314 313 312 311 310 309 308 307 306 305 304 303 302 303 304 304 303
325 325 325 326 326 327 327 328 328 328 328 328 328 327 327 327 326 325 323 321 320 319 317 315 314 312 311 309 309 308 307 306 304 303 302 301 300 299 299 298 298 298
324 324 325 324 324 324 325 325 325 325 325 325 325 325 325 324 322 321 320 318 316 315 314 312 310 309 308 306 306 305 304 303 303 302 301 300 297 296 295 295 294 294
327 327 326 325 325 325 324 324 323 323 322 322 322 321 321 319 318 317 315 313 312 310 309 307 305 304 303 302 301 301 300 299 299 299 299 298 297 295 293 292 291 290
326 326 325 325 324 324 324 323 322 321 320 320 319 318 316 315 314 312 311 310 308 307 305 303 302 300 299 298 297 296 295 294 294 294 295 295 295 294 293 291 290 288
323 322 322 322 323 323 322 322 321 320 320 319 317 316 314 313 311 309 308 307 305 304 303 301 300 299 298 297 296 295 293 292 291 290 290 291 291 291 291 290 290 288
319 319 319 319 320 321 320 320 320 319 318 317 316 315 313 312 310 308 306 304 303 301 300 299 298 297 296 295 294 293 293 292 291 290 288 287 287 287 287 288 288 288
316 316 316 318 318 319 318 318 318 317 316 315 314 313 312 310 309 307 306 304 302 300 299 297 296 295 294 293 292 292 292 293 293 292 290 288 286 284 283 284 284 284
315 315 316 317 317 316 316 315 315 314 314 314 312 312 310 308 307 306 305 304 303 301 300 298 296 295 294 293 293 293 294 294 294 293 291 288 286 283 282 281 281 281
313 314 315 315 314 314 313 313 313 313 312 312 311 310 308 307 307 306 305 304 303 301 300 298 296 296 295 294 294 293 293 293 293 291 288 286 284 282 281 280 279 279
312 313 314 314 314 313 313 313 312 312 312 312 310 309 308 307 306 305 304 303 302 300 298 297 297 296 295 294 293 292 291 291 290 288 285 283 281 280 278 278 277 277
313 314 314 314 314 313 313 314 314 314 314 313 311 309 308 307 305 304 303 302 300 299 297 295 296 296 294 293 292 291 291 291 289 286 284 282 280 279 278 277 275 275
314 315 315 314 314 314 314 315 315 315 314 313 311 310 309 307 306 304 302 301 299 298 296 295 295 294 294 293 292 291 291 290 288 286 284 282 280 278 277 276 275 272
315 315 315 314 314 315 316 316 316 315 314 313 312 311 309 308 306 304 302 300 299 298 297 296 295 295 295 295 294 292 291 290 287 286 284 282 281 280 279 277 275 272
316 315 315 314 314 316 317 317 316 316 315 315 313 311 310 308 306 305 303 302 301 301 300 299 298 298 300 300 300 299 296 292 290 287 285 284 284 284 282 280 276 273
315 315 314 315 316 318 318 318 317 317 316 315 314 312 310 309 308 307 306 305 306 306 305 305 304 304 306 307 305 302 299 295 292 288 287 287 287 286 285 283 281 278